Location: Waco, TX
(31.5480°N, 97.1670°W)
Time: 17:54:42
(UTC-05:00)

ISS - Pass Details

Date: 18 June 2018
Orbit: 402 x 406 km, 51.6° (Epoch: 21 June)

Event Time Altitude Azimuth Distance (km) Brightness Sun altitude
Rises 11:26:20 0° 261° (W) 2,317 -0.3 61.5°
Reaches altitude 10° 11:28:57 10° 283° (WNW) 1,460 -1.2 62.1°
Maximum altitude 11:31:08 17° 325° (NW) 1,132 -1.6 62.5°
Drops below altitude 10° 11:33:20 10° 7° (N) 1,463 -0.9 63.0°
Sets 11:35:58 0° 29° (NNE) 2,325 0.1 63.5°
